Presure
152 154 163 166 167 156 182 185 195 205 195 195 195 210 171 193 195 177 182 183 183 189 193 210 203 197 194 194 197 193 187 189 190 194 206 191 189 191 186 179 183 181 187 201 197 189 188
158 147 149 166 180 169 165 159 167 171 204 216 190 194 201 219 192 184 193 184 192 165 166 188 197 186 196 174 174 188 187 182 180 178 175 176 171 173 198 200 195 197 182 183 176 175 179
185 153 148 158 143 183 165 173 141 187 176 219 215 191 192 194 205 205 172 206 175 173 176 174 187 172 167 187 202 181 188 189 194 191 193 195 189 186 183 183 169 168 156 159 176 175 165
161 171 138 165 180 150 156 149 179 166 173 163 201 199 189 202 177 168 185 250 170 189 155 175 167 163 165 168 187 175 170 170 171 178 192 163 164 170 169 163 155 162 170 172 166 172 167
146 154 145 140 154 158 155 194 179 172 156 188 205 203 193 187 192 169 165 203 229 203 187 177 174 178 180 167 174 180 162 156 166 178 172 174 177 154 166 161 167 165 158 166 160 165 161
154 163 159 136 142 161 157 162 167 201 175 172 204 200 189 185 184 150 154 182 209 214 196 177 185 178 172 172 165 160 169 173 165 167 164 172 170 164 165 169 163 153 152 156 156 154 160
162 161 161 163 164 167 134 186 167 158 178 184 186 186 194 195 197 197 193 149 176 192 218 208 177 181 175 177 171 170 172 166 160 163 170 160 160 164 161 166 169 151 159 156 154 158 160
155 166 144 124 158 149 163 153 192 173 160 180 198 168 188 194 183 187 199 191 186 172 159 142 204 193 174 177 177 173 174 175 173 170 170 168 165 164 166 165 175 172 165 163 157 157 164
145 159 163 151 164 152 170 183 191 188 165 193 201 214 186 190 196 182 195 181 189 183 174 156 173 170 156 161 192 191 186 183 179 176 176 178 158 170 177 170 166 175 167 177 172 162 156
152 160 135 160 163 161 173 184 180 171 165 178 207 162 199 186 187 178 182 176 165 168 172 167 168 169 173 178 176 177 176 180 190 194 207 208 203 183 167 171 180 185 177 172 172 166 163
137 164 162 156 147 164 161 180 170 173 196 183 206 195 189 171 171 167 155 170 171 167 179 166 148 151 159 161 161 167 171 173 168 170 180 177 183 165 144 163 160 162 158 158 172 145 184
162 162 163 151 159 173 169 173 169 163 179 163 170 170 154 153 161 163 156 152 151 156 156 169 169 167 172 164 166 164 154 159 146 178 180 174 183 179 170 168 153 185 176 166 163 171 183
157 161 154 154 164 159 172 181 161 172 168 159 167 164 169 161 153 151 145 151 155 165 170 159 155 152 158 166 174 167 160 175 180 162 172 179 175 176 175 185 176 174 169 173 174 174 165
154 150 144 162 163 169 183 201 159 161 169 148 147 174 148 153 176 166 160 161 158 161 179 172 165 170 161 160 171 174 176 171 167 173 177 175 187 170 175 181 168 175 185 180 159 174 175
170 150 164 177 173 149 210 155 152 171 150 170 145 172 155 182 162 167 160 158 175 175 187 188 171 193 199 188 198 202 181 195 185 179 172 190 191 184 178 177 174 172 178 138 175 181 172
154 163 176 171 205 186 157 165 175 162 168 174 162 171 166 182 166 167 185 183 157 167 187 187 206 191 186 201 193 209 211 234 210 201 191 200 189 191 183 186 186 174 174 173 177 179 183
175 148 183 174 152 175 148 170 170 164 153 170 173 177 170 172 158 162 159 199 205 210 240 212 202 233 247 251 229 288 241 316 298 253 223 225 231 240 202 201 198 191 187 186 184 183 183
142 171 136 137 180 164 163 181 179 168 159 154 184 177 181 185 186 182 186 188 227 226 223 226 308 485 256 479 475 477 460 502 472 332 317 254 246 255 245 279 243 207 223 198 194 193 192
136 142 149 172 141 162 170 171 169 166 192 171 192 198 173 173 200 204 191 224 198 234 237 514 495 396 384 374 365 359 354 447 461 443 437 423 411 402 406 378 288 237 278 243 239 247 216
138 173 165 181 157 160 183 167 195 178 192 191 178 173 180 181 213 186 191 242 291 296 399 382 367 351 339 331 323 327 319 320 319 311 312 396 390 390 380 384 409 374 310 265 255 238 229
165 163 167 164 146 136 179 184 174 188 201 186 176 214 233 232 190 214 247 245 418 389 362 346 335 325 320 314 311 315 319 321 375 431 441 379 367 369 379 375 369 365 369 354 344 336 283
176 165 166 146 177 201 184 181 209 168 205 213 208 173 222 219 224 245 252 402 373 350 338 322 316 310 306 414 401 412 391 306 407 415 411 420 386 378 383 390 352 345 349 335 329 339 347
164 146 174 190 198 176 188 164 187 205 167 193 200 224 221 224 242 284 389 363 350 338 315 308 303 306 352 407 396 396 408 395 398 401 400 390 383 366 364 365 375 344 330 322 322 324 325
172 145 168 184 194 204 182 173 205 219 223 214 208 224 241 234 326 376 361 349 330 309 296 296 297 323 343 392 401 413 408 392 380 373 378 385 369 353 352 343 357 365 333 314 313 316 307
180 181 181 197 154 192 197 192 187 185 222 216 235 225 219 312 368 342 331 314 307 294 298 320 317 331 334 329 428 391 385 359 340 337 342 360 358 337 317 322 336 342 352 341 312 305 320
153 187 201 185 191 180 195 190 202 213 225 192 243 242 273 286 334 328 323 321 322 323 317 317 324 338 334 365 380 370 362 355 337 330 343 334 334 331 329 326 324 325 332 338 338 341 329
182 204 199 178 191 210 206 190 205 216 197 234 226 250 339 340 334 337 333 332 329 321 324 327 329 326 350 356 353 357 353 340 331 330 325 323 319 317 320 322 322 323 313 319 327 334 334
197 198 192 194 203 211 194 177 212 184 229 242 244 328 342 342 328 343 340 337 332 328 324 327 327 326 322 346 325 328 330 327 330 326 326 322 318 316 319 318 315 313 332 326 325 331 327
175 177 218 201 212 211 195 196 177 226 234 246 278 338 345 328 332 363 348 342 335 329 326 323 321 325 318 320 310 326 323 321 309 315 323 316 306 308 315 324 308 324 331 324 342 326 330
Wind_Speed
14 13 24 27 25 18 31 29 29 28 22 19 17 25 34 27 27 36 36 39 41 39 39 40 42 43 46 50 51 49 55 58 56 56 54 54 55 55 56 59 57 55 57 48 43 44 45
28 16 18 35 39 32 34 23 29 28 31 29 26 22 21 29 28 34 33 40 40 48 48 40 40 43 46 58 53 47 50 54 53 54 55 56 59 57 43 46 43 44 48 47 50 56 46
37 21 19 28 23 42 29 41 33 41 34 35 29 27 25 25 32 31 41 40 48 47 47 48 40 48 56 46 42 46 45 46 47 48 45 41 44 46 47 46 58 60 68 68 54 55 54
35 38 29 36 41 25 27 28 49 29 36 29 30 26 26 30 35 39 32 37 47 46 51 50 55 56 59 61 44 54 57 57 57 51 43 67 65 55 58 61 74 66 59 60 62 55 60
30 35 29 27 34 38 34 48 48 35 31 48 35 31 29 35 32 37 37 33 37 44 46 48 50 50 48 61 56 50 64 70 63 52 57 55 54 73 60 65 61 66 70 61 66 67 68
39 44 44 36 34 46 41 47 47 42 50 42 39 33 32 34 36 40 41 34 34 42 49 48 48 51 53 55 63 66 62 59 66 63 66 65 63 63 62 68 67 73 73 74 72 72 74
44 44 49 50 52 48 42 53 47 41 47 47 40 42 38 35 33 36 35 46 37 36 45 54 50 52 52 57 61 64 64 69 72 69 67 75 72 67 73 74 71 80 75 75 78 77 75
45 51 39 40 50 43 56 44 54 45 47 48 39 44 46 42 37 36 38 38 39 42 55 54 49 54 62 60 65 68 70 72 72 74 76 74 73 78 79 78 78 80 81 81 80 79 76
43 52 56 43 55 47 61 61 58 54 49 46 38 47 48 48 44 43 39 42 42 43 47 66 56 59 63 65 65 69 73 75 77 78 80 79 78 83 84 83 83 83 83 85 86 87 71
51 56 34 56 58 58 63 63 57 52 53 50 50 51 38 50 45 46 45 48 56 55 52 57 61 66 69 70 71 73 75 75 75 79 80 78 83 88 83 89 93 86 91 88 90 89 85
35 59 59 57 44 65 56 64 57 57 58 50 54 36 39 47 50 54 58 57 59 64 61 66 73 72 74 77 79 80 85 85 87 87 87 85 84 83 69 90 87 87 90 87 91 60 95
60 60 61 52 64 69 69 66 57 57 53 59 56 52 59 65 61 65 69 68 69 73 74 74 75 80 83 84 81 88 75 78 66 95 95 93 91 90 84 91 71 100 101 99 79 87 80
61 63 61 58 68 61 71 67 58 59 58 63 65 66 63 68 73 72 69 79 80 81 86 85 81 81 87 96 97 92 82 101 101 103 103 102 99 100 100 104 104 108 103 104 107 102 81
61 56 52 69 67 72 76 74 62 64 64 69 74 72 72 81 75 80 82 88 88 93 93 96 98 100 85 97 106 107 108 104 106 116 114 109 111 111 112 112 111 112 112 100 99 110 102
68 61 69 71 73 59 75 61 67 68 73 67 79 76 85 82 93 96 98 98 105 107 102 105 91 111 112 116 119 119 116 122 123 124 119 125 120 121 120 115 124 116 118 85 121 118 99
62 67 73 73 71 71 67 70 67 72 72 74 78 86 90 87 92 93 103 107 96 111 117 119 119 118 116 122 126 131 127 124 129 131 132 134 116 127 133 134 131 124 127 120 124 124 131
69 57 72 66 66 64 71 70 70 74 84 83 89 91 92 100 85 100 100 112 118 124 124 128 123 132 134 129 131 119 126 121 125 125 129 131 135 125 138 144 143 142 144 143 140 137 137
54 73 64 70 67 70 74 77 80 81 92 99 93 100 105 108 112 117 121 124 122 125 132 133 126 60 130 56 56 56 63 44 57 116 122 127 126 131 124 129 137 136 142 149 149 144 146
63 66 71 68 71 77 83 82 86 89 94 99 103 105 113 115 109 117 123 125 132 129 134 49 44 77 76 74 74 73 72 46 48 53 53 60 71 80 77 85 126 136 131 138 138 138 143
67 74 69 77 79 87 87 89 96 98 103 104 110 116 120 123 118 125 127 129 117 115 77 76 74 72 71 70 72 69 70 70 75 78 82 59 66 66 75 75 59 74 119 133 139 141 139
73 72 74 77 87 80 90 96 100 107 108 111 113 119 128 125 130 129 132 131 67 68 72 77 71 73 71 69 68 66 68 66 48 31 41 57 64 66 63 61 64 64 63 77 86 89 127
74 72 80 84 96 97 95 100 115 109 116 119 121 113 126 131 136 134 137 68 76 70 73 70 73 70 70 40 44 37 46 64 38 31 34 42 51 55 52 53 58 61 58 66 81 75 65
69 81 88 97 101 99 100 100 112 119 109 124 127 132 132 139 138 131 75 78 74 68 74 74 71 69 59 36 39 43 43 36 31 26 25 35 42 48 44 43 53 61 65 71 73 74 68
81 86 93 97 102 110 107 112 119 131 127 128 128 136 140 140 132 82 78 75 74 77 73 76 76 67 57 38 36 31 19 16 15 19 21 22 28 29 27 38 38 48 69 72 74 76 75
92 100 103 106 97 106 114 116 121 118 137 137 147 139 137 142 87 92 88 87 83 84 81 73 69 61 54 52 27 15 11 6 13 18 16 12 20 25 39 44 39 37 40 62 78 81 82
87 105 108 104 107 111 118 122 126 139 147 129 151 148 149 139 99 98 94 90 83 76 74 71 65 54 50 37 24 13 8 7 13 23 17 14 14 20 28 36 38 39 37 41 48 54 61
109 111 113 106 112 124 126 123 132 146 130 151 146 153 109 98 94 92 89 84 80 78 71 63 56 49 41 33 26 16 11 15 18 21 22 24 23 25 28 32 32 29 35 39 43 41 46
108 105 111 117 119 129 124 108 146 117 154 155 156 118 101 96 94 88 83 78 74 70 66 59 52 46 41 32 34 29 21 22 26 25 24 27 28 32 33 33 32 35 34 40 40 41 46
101 104 123 120 130 134 126 131 106 155 157 155 147 100 94 97 93 71 71 68 66 63 57 56 50 43 40 35 37 32 29 26 30 28 27 27 29 28 31 32 35 34 34 38 33 39 41
Wind_Direction
333 340 357 0 354 326 357 353 351 344 322 305 292 334 275 278 275 262 263 260 258 259 261 265 263 262 262 263 265 265 266 266 267 267 269 270 270 271 272 271 273 273 276 274 276 278 281
332 312 325 352 351 347 333 327 345 321 340 331 306 298 309 320 272 269 275 263 268 261 261 265 266 263 266 263 263 265 264 267 265 265 268 268 268 269 273 272 273 268 273 275 277 275 281
348 322 308 344 299 345 341 346 296 339 341 341 329 301 293 295 311 287 268 281 266 265 263 264 262 262 264 267 273 261 264 265 267 267 267 265 265 266 267 268 271 271 273 278 274 277 281
338 339 286 337 346 312 326 305 340 320 338 320 320 312 298 320 280 276 277 282 270 266 273 262 268 267 268 268 262 261 262 263 265 269 267 267 268 265 266 269 270 274 272 271 279 281 276
307 321 305 293 331 332 326 336 335 317 310 329 328 322 307 299 296 275 276 293 274 267 267 265 267 268 264 270 269 265 266 271 269 270 269 267 266 272 270 271 267 268 273 275 274 276 277
325 332 332 296 302 328 326 332 333 330 326 324 325 317 298 291 287 279 280 279 287 270 267 269 268 267 265 268 271 271 268 266 268 268 270 267 268 269 269 266 268 275 274 274 274 276 279
332 332 331 331 331 334 295 331 327 307 321 321 312 307 302 301 301 303 292 283 274 282 274 269 269 270 265 268 266 268 269 269 269 268 265 268 268 268 267 269 269 277 272 273 275 277 277
327 328 315 293 322 320 328 314 325 322 317 313 309 301 304 298 284 291 294 285 280 270 278 279 275 267 272 268 267 268 267 267 266 266 267 266 268 267 267 269 268 268 269 271 275 277 275
319 323 325 314 327 323 331 330 327 322 312 320 310 324 297 297 295 284 290 280 280 275 270 277 278 271 269 270 268 267 267 267 268 268 268 268 271 269 268 268 270 268 268 266 267 272 281
318 320 301 323 324 326 330 329 326 316 318 314 332 308 301 296 293 291 288 284 282 279 273 272 273 275 275 274 272 269 267 267 268 266 267 267 266 265 268 268 268 268 267 266 265 270 274
313 320 319 321 315 323 325 327 323 320 321 305 323 309 297 294 292 290 290 286 281 280 272 273 288 288 281 279 279 274 271 268 268 267 264 265 262 280 289 273 282 276 280 282 269 267 265
317 317 316 316 319 319 322 322 318 316 314 307 302 296 296 297 291 287 288 291 293 287 286 274 269 271 268 277 278 280 291 283 284 268 264 265 264 262 267 275 290 264 263 273 282 267 266
314 314 315 314 317 317 320 320 312 316 310 304 300 298 292 287 292 296 300 295 292 281 276 286 294 297 296 279 267 287 288 272 265 297 282 275 277 279 274 260 267 269 278 278 274 277 263
314 314 310 313 314 317 316 317 306 308 307 300 300 301 302 296 297 294 299 293 296 290 277 280 289 281 304 301 287 285 285 293 293 285 282 286 264 278 280 273 287 274 266 262 263 274 268
309 312 312 313 314 309 315 306 303 307 299 300 300 294 298 298 292 286 293 300 285 287 283 277 294 274 270 274 270 264 287 268 273 281 288 273 273 266 278 268 276 281 280 268 279 279 281
309 312 313 315 320 317 307 309 311 301 301 300 300 292 288 295 297 296 291 286 307 298 291 289 286 288 295 283 287 284 280 275 271 267 272 267 269 265 272 270 267 276 276 273 278 277 274
312 305 314 311 303 318 302 306 303 295 297 301 296 295 297 288 302 296 303 299 295 290 295 286 292 291 289 288 288 283 281 273 271 267 269 268 266 264 264 265 262 263 266 271 269 272 272
299 314 301 300 316 305 301 311 308 297 294 299 304 298 297 298 295 290 291 294 298 294 292 294 296 297 291 292 288 284 279 269 267 267 266 265 266 263 261 257 261 262 259 261 265 266 267
300 299 303 312 308 300 305 303 299 296 312 294 312 310 293 295 301 298 299 300 301 303 300 300 301 296 295 293 291 287 284 273 266 266 262 261 261 266 265 263 258 257 257 258 259 257 261
297 312 307 317 294 306 312 303 317 301 313 308 295 295 294 295 302 301 303 306 305 307 305 303 302 299 297 295 293 290 285 281 277 272 270 257 262 261 263 263 249 255 260 257 257 258 261
309 301 306 304 299 314 308 311 299 313 314 302 298 314 319 314 300 302 312 312 311 310 308 306 305 303 299 296 293 291 288 284 285 277 250 250 257 260 260 259 259 258 255 260 256 257 260
314 300 308 312 310 320 310 305 321 300 317 318 313 307 314 308 308 315 315 315 315 315 311 307 305 303 300 299 303 296 292 286 299 284 267 245 246 255 253 250 251 255 249 249 258 261 254
295 304 312 318 319 305 311 309 304 317 310 299 307 318 313 312 315 318 318 319 316 316 311 309 306 306 310 302 298 294 291 302 305 295 250 245 245 249 257 253 243 239 246 249 252 253 253
313 301 306 313 318 324 305 302 318 327 325 317 310 316 319 317 321 319 320 320 318 314 312 310 310 312 313 301 306 318 313 307 328 321 293 266 240 240 248 257 251 244 240 246 248 251 249
318 315 315 320 307 314 314 311 303 316 324 319 321 320 318 323 320 321 321 319 316 314 313 316 314 315 313 311 317 321 299 304 298 299 290 300 238 230 242 251 255 246 242 240 243 250 250
298 317 321 315 319 307 315 310 321 323 324 318 322 320 325 325 321 320 319 318 317 317 317 317 316 318 317 317 329 315 281 244 248 272 276 254 238 249 250 254 260 259 256 251 245 241 245
317 321 323 308 313 328 324 314 321 325 319 323 320 323 322 322 321 319 319 318 318 318 319 319 318 320 317 319 318 302 298 289 284 274 279 280 271 264 258 261 263 262 258 258 256 251 248
319 317 321 318 323 325 318 315 326 319 324 324 323 323 321 321 321 319 317 317 316 317 317 317 319 321 319 313 312 314 308 294 296 293 279 275 277 277 275 275 272 262 270 258 258 253 252
310 311 322 323 326 327 315 316 321 323 324 323 327 321 321 321 320 316 314 315 313 314 314 314 316 317 314 313 308 307 304 296 296 287 282 275 282 279 278 279 274 277 271 266 263 261 256